RH
63 61 61 61 60 61 62 65 65 65 66 60 54 50 51 56 54 56 58 57 59 59 57 52 42 32 26 20 19 18 12 19 22 20 28 31 22 13 7 4 4 4 5 5 5 6 5 6 5 5 6 5 5 4 4 4 4 4 5 5 6 6 7 7 7 7 7 7 8 8 8 9 9 9 9 10 9 9 9 9 8 8 8 7 7 7 7 7 7 7 7 7 7 6 6 6 6
68 68 67 67 65 64 70 71 65 60 61 58 51 50 52 55 54 55 58 59 61 59 55 45 36 28 22 20 15 14 13 9 10 11 13 14 12 9 5 5 5 4 5 5 5 5 5 5 5 5 5 5 5 4 5 4 5 5 5 6 6 7 7 7 7 7 8 8 8 8 9 9 9 9 10 10 10 10 9 9 9 8 8 8 8 8 8 8 8 8 8 7 7 7 7 7 6
70 71 71 72 71 71 75 76 69 59 56 55 51 52 54 56 57 57 58 60 61 58 53 42 33 27 21 21 15 13 15 8 7 9 8 8 7 6 5 5 4 5 5 4 5 5 5 5 5 5 5 5 5 5 5 5 5 6 6 6 6 7 7 7 7 7 8 8 9 9 9 9 9 10 10 11 11 11 10 10 9 9 9 9 9 9 9 9 9 8 8 8 8 8 7 7 7
72 72 73 74 74 74 77 77 72 65 60 57 52 51 53 57 58 58 60 62 62 55 46 37 29 23 18 17 13 9 8 5 5 6 5 5 4 5 4 4 4 4 5 5 5 5 5 5 5 5 5 6 5 6 6 6 6 6 6 6 7 7 7 7 7 8 8 8 9 9 9 9 10 11 11 12 11 11 11 10 10 9 9 9 9 9 9 9 9 8 8 9 8 8 8 8 8
74 72 73 74 75 74 75 78 72 67 65 59 51 47 49 53 54 55 55 54 52 46 37 30 23 17 11 9 7 6 5 4 4 4 4 4 4 4 4 4 4 4 5 5 5 5 5 5 6 5 6 6 6 6 6 6 6 6 7 6 7 7 7 7 7 8 8 9 9 9 9 10 10 12 12 12 12 12 11 10 10 10 9 9 9 9 9 8 8 8 8 8 8 8 8 8 8
75 74 73 73 73 72 71 72 66 62 61 58 53 48 48 51 54 57 56 51 46 41 34 25 20 14 7 6 5 5 5 4 4 4 4 4 4 4 4 5 4 5 5 5 5 5 6 6 6 6 6 6 6 6 6 6 6 6 7 7 7 7 7 7 8 8 8 9 9 9 10 10 12 13 13 13 13 12 12 11 11 10 10 9 9 9 9 9 8 8 8 8 8 8 8 8 8
75 73 72 72 71 70 69 66 60 58 56 54 55 53 52 52 54 59 57 56 50 41 32 23 19 14 7 8 7 6 6 5 4 4 4 4 5 5 5 5 5 5 5 5 5 5 6 6 6 6 6 6 6 6 6 6 6 7 6 7 7 7 8 8 8 8 9 9 10 10 10 12 13 14 14 14 14 13 13 12 12 11 10 10 9 9 9 9 9 9 9 8 8 8 8 8 8
74 72 69 69 68 64 64 62 57 56 53 49 53 55 54 54 56 57 53 51 46 37 29 23 19 14 10 11 10 9 8 6 5 4 5 4 5 5 5 5 5 5 6 6 6 6 6 6 6 7 7 7 6 7 7 7 7 7 7 7 7 8 8 8 9 9 10 10 10 11 11 13 14 15 15 15 15 14 14 13 12 11 10 10 9 9 9 9 9 9 9 8 8 8 8 8 8
62 64 65 64 60 58 58 57 54 51 49 47 50 50 43 44 49 49 48 46 42 37 30 23 19 15 13 14 13 12 10 8 6 5 5 5 5 5 5 5 6 6 6 6 6 6 6 7 7 7 7 7 7 7 7 7 7 8 8 8 8 9 9 9 10 10 10 10 11 11 12 14 15 15 15 16 16 15 14 13 12 11 10 9 9 9 9 9 9 8 8 8 8 8 8 8 8
42 44 51 60 54 51 51 48 47 42 43 44 39 35 28 31 37 38 41 40 36 33 27 21 19 17 16 16 16 14 11 9 7 7 6 6 6 6 6 6 7 7 7 7 7 7 7 7 7 8 8 8 8 8 8 8 9 9 9 10 10 10 10 11 11 11 11 11 12 12 13 15 16 16 16 17 16 16 14 13 11 10 10 9 9 9 9 8 8 8 8 8 8 8 8 8 8
38 40 35 47 45 41 40 37 37 35 41 40 29 24 20 23 28 28 30 30 26 22 20 19 19 18 19 18 17 15 12 11 10 10 9 9 9 8 8 7 8 7 8 8 8 8 8 8 8 9 9 9 9 9 10 10 10 11 11 12 12 12 12 12 12 12 11 12 13 13 14 16 17 17 18 18 17 16 14 12 11 10 10 9 9 9 9 8 8 9 9 9 9 10 10 10 10
38 51 34 35 36 33 33 31 32 30 31 30 25 24 16 14 17 17 18 18 18 18 18 20 20 20 21 20 18 16 14 13 12 12 12 11 11 10 9 9 9 9 9 9 9 9 9 10 10 10 11 11 11 11 12 12 12 13 13 13 13 13 13 13 13 13 12 12 13 13 15 18 19 19 19 18 17 15 13 11 10 10 10 9 9 9 9 9 10 10 10 11 10 11 11 11 12
32 51 43 36 32 31 32 30 29 25 22 20 22 20 11 10 11 12 13 14 17 18 18 19 20 21 22 22 19 17 15 14 13 13 13 13 12 12 11 11 11 11 11 11 11 11 11 12 12 13 13 14 14 14 14 14 14 14 15 15 15 14 14 14 13 13 13 13 14 15 18 20 20 20 19 18 16 13 12 11 11 10 10 9 9 9 10 11 11 12 12 12 12 12 13 13 14
27 45 44 38 33 31 31 26 22 20 20 19 19 14 9 9 9 10 11 15 17 15 16 18 20 22 23 23 20 18 16 15 14 14 14 14 13 12 12 12 12 13 13 13 13 14 14 14 15 15 16 16 16 16 16 16 16 16 16 16 16 15 15 15 15 14 14 14 16 17 20 22 22 21 19 17 14 12 12 11 11 10 9 9 10 11 12 13 13 13 13 14 14 15 16 17 17
18 30 32 33 30 27 26 23 21 18 17 17 15 10 7 8 8 8 9 15 17 15 17 18 20 23 22 23 22 18 17 16 14 14 13 13 13 13 13 13 14 14 14 15 15 16 16 17 17 17 17 17 18 18 18 18 17 17 17 17 16 16 16 16 16 15 15 17 18 20 23 23 22 20 18 15 13 13 13 12 11 11 10 11 13 14 15 14 14 14 15 16 18 18 19 19 19
9 13 22 30 26 22 23 24 22 16 16 19 13 7 7 7 7 8 10 14 16 16 19 19 21 22 21 21 21 18 16 15 14 14 14 14 14 14 15 15 16 16 17 17 18 18 18 18 19 19 19 19 19 19 18 19 18 18 18 18 17 17 17 17 17 17 18 20 21 24 25 24 22 19 16 14 14 13 13 13 12 12 12 14 16 16 15 15 15 16 18 19 20 21 20 20 19
7 8 21 29 22 18 20 22 21 16 15 16 10 7 9 8 8 9 10 11 13 15 17 18 19 19 19 18 17 15 14 14 14 15 15 16 16 16 17 17 18 19 19 20 20 20 20 20 20 20 20 20 19 19 19 19 19 19 19 18 19 18 19 19 19 20 21 23 25 27 27 25 22 19 16 15 14 14 14 14 13 14 16 18 18 18 18 18 19 21 22 22 22 21 20 19 19
7 10 19 23 18 17 18 18 16 13 12 11 8 8 9 9 10 9 9 11 12 13 14 14 15 15 15 14 13 14 14 15 15 15 16 17 17 18 18 19 20 20 21 21 22 21 22 22 21 21 21 21 20 20 20 20 20 20 20 20 21 20 21 21 21 22 23 26 28 29 28 25 22 19 17 16 15 15 16 16 16 18 21 22 22 22 22 23 25 25 25 24 23 21 20 20 19
8 14 21 19 16 17 17 14 9 9 10 10 9 9 10 10 10 10 11 11 11 14 15 13 12 13 12 13 14 14 15 15 16 16 17 18 18 19 19 20 21 22 22 22 23 23 23 23 22 22 22 22 21 21 21 21 22 22 22 22 23 23 23 23 24 25 27 29 31 30 29 26 22 20 18 17 17 17 17 19 20 22 24 25 25 26 27 28 28 26 25 24 23 22 21 21 20
9 13 18 19 17 16 13 9 9 9 9 10 10 10 10 11 11 11 12 12 18 22 18 14 14 14 13 14 15 15 16 16 17 18 19 19 20 21 21 22 23 23 23 23 24 24 24 24 23 23 23 23 22 22 22 22 23 23 24 24 24 25 25 25 25 27 30 32 33 32 30 27 23 21 19 19 19 20 20 22 24 25 26 27 27 28 29 29 28 27 26 25 24 24 23 23 22
11 9 12 16 14 13 11 9 10 10 10 11 11 11 11 11 12 12 12 14 24 24 16 15 15 15 14 15 16 16 17 17 18 19 20 20 20 22 22 24 25 25 25 25 25 25 25 25 24 24 24 23 23 23 24 24 25 25 26 26 26 26 26 26 27 29 31 33 34 33 31 28 25 23 22 22 23 23 24 25 26 27 27 28 29 30 30 30 29 28 27 27 27 26 26 26 25
10 9 11 12 11 11 11 10 11 11 11 11 11 12 12 12 12 13 13 14 19 17 14 16 15 16 16 17 18 18 18 19 19 19 20 21 21 22 24 26 26 26 27 26 26 27 26 26 25 25 25 25 25 25 25 26 26 27 27 27 26 26 26 27 27 28 30 32 33 32 32 29 27 26 25 26 26 26 27 27 27 28 29 29 30 30 31 31 30 29 29 29 29 29 29 29 29
11 13 13 10 11 12 11 10 11 11 11 11 12 12 11 13 14 14 14 13 13 13 14 16 15 17 18 19 20 20 20 20 21 21 21 21 22 23 25 27 27 27 28 27 28 28 27 27 27 26 26 26 26 27 27 27 27 27 27 27 27 27 27 27 27 28 28 29 30 30 31 30 29 29 29 29 29 29 29 29 29 30 30 31 32 32 32 32 32 31 31 31 31 30 30 31 31
11 13 13 10 11 11 11 11 11 11 12 12 11 12 12 13 15 14 13 13 14 14 15 16 17 18 19 20 21 21 21 21 22 22 22 23 23 25 27 28 29 29 28 29 29 29 28 28 28 28 28 27 28 27 27 27 27 27 27 27 27 27 27 27 27 27 27 27 28 29 31 32 32 32 33 32 32 32 31 30 30 31 33 34 35 35 34 34 34 33 33 33 32 32 31 32 31
11 11 12 11 11 11 11 11 11 12 11 12 12 12 12 12 15 15 13 14 14 15 16 17 18 19 21 22 22 22 22 22 23 23 24 24 25 27 28 29 29 29 29 30 30 30 29 29 29 29 29 28 28 28 28 28 28 28 27 27 28 28 28 28 28 29 29 29 30 31 34 36 37 37 37 37 35 33 32 31 32 33 35 36 37 37 36 36 36 35 34 34 33 33 32 32 31
13 11 11 11 11 11 11 12 11 11 11 11 12 12 13 14 16 16 14 15 16 18 19 20 21 22 23 23 23 24 23 24 25 25 25 26 27 28 28 28 29 29 30 31 31 31 31 30 30 29 29 29 28 28 28 28 29 29 29 29 29 29 30 31 31 33 34 35 36 37 40 42 42 42 41 39 37 34 33 32 33 34 36 38 38 38 38 37 37 36 36 35 35 34 34 33 33
12 11 12 11 11 11 11 11 11 11 12 12 14 15 16 17 18 18 17 18 19 21 22 23 24 24 24 24 25 25 25 26 26 26 27 27 27 27 28 28 29 30 31 32 33 33 32 31 31 30 29 29 28 29 29 30 31 31 31 31 31 31 32 33 34 36 38 40 43 45 47 49 47 45 42 40 37 34 33 33 33 35 37 39 39 39 39 39 38 38 37 37 37 36 36 36 36
11 11 11 10 11 11 11 12 11 13 14 15 17 18 18 19 20 20 19 20 21 22 23 24 24 25 25 26 27 27 27 27 27 27 27 27 27 27 27 28 30 31 32 34 35 35 34 32 31 30 29 29 29 30 31 32 34 34 34 33 33 34 34 36 37 39 42 45 49 53 53 52 49 45 41 38 37 35 34 34 35 37 38 39 40 40 40 40 40 39 39 38 38 38 39 39 39
10 10 11 11 12 12 13 14 15 15 17 18 19 21 23 23 22 22 22 22 22 22 24 24 25 26 26 27 28 28 28 28 28 28 28 28 28 28 29 31 32 33 34 35 36 37 36 33 31 30 30 30 31 32 34 36 38 37 37 37 36 37 37 39 41 44 48 52 56 57 54 50 46 42 40 38 37 36 35 36 37 38 39 40 40 40 40 41 41 40 40 40 41 41 40 41 41
11 11 11 12 14 20 23 20 18 16 17 19 18 23 29 27 26 25 24 23 23 23 24 24 26 27 28 29 29 30 30 31 31 31 31 31 30 31 32 33 34 35 36 37 38 40 39 37 34 33 32 33 35 37 41 43 43 43 42 42 42 43 44 46 48 51 55 58 58 56 51 46 43 41 39 39 38 38 38 38 39 39 40 41 41 41 41 41 42 42 42 42 43 43 43 43 43
12 12 13 17 18 24 28 22 19 18 18 20 18 23 29 28 28 26 25 27 26 26 27 26 28 28 30 31 31 32 33 33 34 34 34 34 34 34 34 35 36 36 38 38 40 42 44 43 40 38 38 39 42 45 47 49 49 50 50 50 51 51 53 54 56 58 59 60 57 53 48 44 42 41 40 40 40 40 41 41 41 42 42 43 44 44 44 44 45 45 44 45 46 46 46 46 46
15 15 19 24 22 23 28 24 21 21 21 21 20 26 32 30 30 29 28 30 29 29 29 29 29 29 30 32 33 34 35 35 36 36 37 37 36 36 36 37 38 39 40 41 43 46 47 47 46 45 46 48 50 52 53 54 54 55 56 56 57 58 59 61 62 62 61 59 55 51 47 45 44 43 43 43 45 45 45 46 46 46 46 47 48 48 49 50 50 49 49 49 49 49 50 50 50
24 24 22 23 25 25 25 26 26 24 23 24 24 29 34 31 29 30 31 31 31 31 30 30 30 30 30 31 32 33 36 38 39 39 39 39 39 39 40 40 41 42 43 45 47 49 51 51 51 52 53 54 56 57 58 59 60 61 62 63 65 66 66 67 66 64 61 57 54 50 48 48 47 47 48 49 51 51 52 53 52 51 52 53 54 54 54 55 55 54 54 54 54 54 53 53 53
25 27 24 23 29 28 26 30 30 25 22 27 32 32 31 30 30 30 31 30 31 31 30 30 30 30 31 31 33 34 37 40 43 44 43 43 43 43 44 44 45 46 47 49 51 53 54 55 57 58 59 61 62 64 66 68 70 71 72 73 73 73 71 70 67 64 61 58 55 53 53 53 53 54 56 57 59 59 59 60 59 58 58 58 59 59 59 58 58 57 57 58 57 57 57 56 55
21 25 28 27 29 29 31 34 30 25 23 28 38 40 33 31 31 29 29 29 29 30 30 31 31 32 34 35 37 39 41 43 45 47 47 48 48 48 48 49 49 50 52 54 56 58 60 61 64 66 68 71 73 76 78 79 80 79 78 77 75 73 72 69 67 66 65 65 64 61 64 67 67 67 67 66 67 67 66 66 65 64 63 63 63 63 63 62 61 61 61 60 59 59 58 57 56
19 22 25 26 28 30 33 33 27 25 29 33 36 37 34 30 30 29 29 31 31 32 32 33 35 36 38 40 41 43 45 47 48 49 50 50 51 51 52 53 54 56 58 62 65 66 68 70 72 75 78 81 83 85 85 84 82 80 77 76 75 76 77 75 74 74 75 78 77 74 75 77 77 77 75 74 73 72 71 70 69 68 67 67 67 66 66 65 64 63 62 62 60 59 57 55 52
19 21 24 29 33 34 34 31 27 24 32 41 37 32 33 30 30 32 32 34 34 35 36 37 39 40 41 43 45 47 49 51 52 52 53 53 53 55 56 58 60 63 66 69 72 74 75 78 79 83 84 85 87 87 85 83 80 79 77 77 79 81 84 83 82 82 82 83 83 80 79 79 78 77 76 75 75 74 73 73 72 71 70 69 69 68 66 65 64 62 61 59 57 54 52 49 46
21 26 30 33 36 35 33 30 27 23 27 43 46 39 37 33 33 35 36 38 38 39 40 40 42 42 44 46 48 51 53 54 55 55 55 55 56 59 61 64 66 69 71 72 75 78 80 83 86 88 88 87 86 85 84 83 82 82 83 84 86 87 88 87 85 85 85 85 84 83 81 80 79 78 76 75 75 75 74 73 73 71 70 69 67 65 62 60 58 56 54 52 49 46 43 40 37
28 31 31 34 35 33 34 33 29 22 23 43 51 41 37 37 36 38 39 41 41 42 43 43 45 46 47 50 52 55 57 58 58 58 58 59 60 63 66 68 70 71 74 76 79 82 85 88 91 91 90 89 87 87 88 89 90 90 91 91 91 91 90 89 88 86 86 85 84 83 82 80 80 79 77 75 74 73 72 70 69 68 66 63 61 59 56 53 51 48 45 43 40 37 35 32 29
36 30 29 33 32 27 33 36 28 22 26 38 46 43 42 41 38 40 41 42 43 44 45 46 48 50 51 53 55 57 60 61 62 62 62 64 65 66 68 69 72 74 77 80 82 85 89 92 94 92 91 91 91 93 94 95 96 94 93 93 91 90 89 87 86 85 84 82 80 79 77 76 74 73 71 69 68 66 65 63 61 59 57 55 53 51 48 45 43 41 38 34 32 30 28 26 25
34 29 28 30 28 24 28 30 25 31 38 38 41 49 56 53 43 42 43 43 46 46 48 51 52 55 56 56 58 59 61 63 65 67 67 68 69 69 71 73 76 79 82 85 87 91 94 94 93 93 93 94 95 96 96 95 94 93 91 89 88 86 84 82 80 78 77 75 73 71 69 67 65 62 60 58 57 55 54 53 52 50 48 46 44 42 39 37 35 33 31 28 27 25 24 23 22
30 33 29 24 24 24 24 26 27 35 42 41 38 38 54 67 55 45 47 47 49 50 51 55 58 60 61 60 61 61 63 65 66 68 69 69 72 74 76 79 82 87 89 90 92 94 94 93 92 94 95 96 96 95 94 92 90 88 86 83 81 79 76 74 72 70 68 65 63 61 58 56 53 51 49 47 46 44 43 43 42 41 39 37 36 34 32 31 29 27 26 25 24 24 23 23 22
32 34 27 23 25 24 24 26 29 33 34 36 38 32 44 68 64 49 51 49 48 54 57 59 63 66 66 66 66 65 66 68 68 69 69 70 74 77 80 84 87 92 94 95 96 96 95 95 96 97 97 96 95 93 90 87 85 82 79 76 73 70 67 64 61 58 56 53 51 49 46 44 42 41 40 39 37 36 36 35 35 34 33 32 31 30 28 27 26 25 25 25 24 25 24 24 23
32 29 24 24 23 23 24 25 30 37 36 35 40 35 32 53 65 56 55 55 53 55 60 64 67 69 72 71 71 72 71 73 73 72 73 75 78 81 84 88 91 95 97 99 99 99 99 99 99 98 96 94 91 89 85 82 78 75 71 66 62 58 55 51 48 45 43 42 40 39 38 37 36 35 34 34 33 32 32 31 32 31 31 30 29 28 27 26 26 26 26 26 26 27 28 28 28
30 27 24 24 22 24 24 26 32 34 36 35 36 34 27 44 68 66 67 76 71 61 61 66 68 69 73 76 77 79 78 78 79 79 80 82 85 89 92 94 97 99 99 100 100 100 100 100 99 96 93 91 88 84 79 73 68 62 56 52 48 45 43 41 40 39 38 37 36 36 36 36 36 36 35 35 34 33 33 32 32 32 31 30 29 28 28 27 26 26 26 27 28 29 31 32 31
30 25 22 23 24 26 23 28 36 34 34 35 34 36 30 42 66 69 68 76 73 67 64 64 68 70 72 77 78 79 80 80 81 82 83 85 87 91 97 99 100 100 100 100 100 100 100 99 97 95 90 86 81 74 66 59 53 48 43 41 40 39 39 39 39 39 39 39 39 39 40 39 39 38 37 37 36 35 34 34 32 31 30 30 29 28 27 26 25 24 24 25 26 29 31 31 31
28 25 25 26 28 29 27 29 35 33 33 35 36 37 33 42 62 64 59 62 64 68 68 63 65 69 72 76 77 78 79 80 81 82 83 85 86 90 97 100 100 100 100 100 100 99 100 99 96 90 83 76 68 59 51 45 42 40 40 40 41 41 41 42 42 42 42 42 42 41 41 39 37 36 35 34 33 32 31 30 28 27 26 25 25 24 23 22 21 20 20 19 20 22 24 26 27
26 27 29 28 26 29 29 29 30 28 30 36 37 34 32 43 58 59 57 59 59 63 68 66 65 69 73 76 78 79 80 80 81 81 83 87 90 92 95 96 97 98 98 99 100 99 98 95 88 79 69 60 52 45 40 40 40 41 43 44 45 46 46 45 44 43 42 40 39 37 35 33 31 30 29 28 27 26 26 25 24 23 23 22 22 21 20 19 18 17 16 15 15 15 16 17 18
24 28 33 27 24 27 27 26 26 24 28 34 35 31 32 42 54 56 55 57 59 61 64 64 65 70 73 75 76 77 77 77 78 80 85 91 95 97 97 98 100 101 100 99 96 93 88 81 72 60 52 46 41 40 40 43 46 47 49 50 50 49 47 44 41 37 34 31 29 27 25 24 23 22 23 22 22 22 22 22 21 21 21 21 21 21 20 20 19 19 17 16 15 14 14 14 14
28 30 38 34 30 33 34 28 25 25 26 28 33 33 35 46 54 51 47 51 57 59 58 60 65 70 73 75 75 75 75 77 82 88 94 97 97 98 99 98 97 94 91 88 84 80 74 66 56 47 42 41 39 41 44 47 50 51 52 52 49 46 41 36 31 27 24 23 22 23 23 23 24 24 24 24 24 24 24 24 24 23 23 23 22 22 22 22 21 21 21 20 19 19 18 17 17
39 35 37 39 39 41 39 30 29 30 27 29 33 32 36 47 49 42 40 47 51 52 51 55 63 71 74 75 74 75 78 79 83 90 93 93 92 91 91 88 86 84 81 78 72 66 59 51 45 42 41 43 43 46 49 52 54 53 51 47 41 34 28 23 22 22 23 24 25 26 26 25 25 24 24 23 23 22 22 22 22 22 22 23 23 23 23 23 23 23 23 22 22 22 21 21 21
37 34 33 36 40 45 40 31 34 38 35 35 33 32 42 47 44 43 44 43 44 46 50 58 68 72 68 65 65 66 70 77 84 89 90 89 86 85 83 78 74 71 65 60 54 48 46 44 44 46 48 50 52 55 56 55 52 46 38 32 26 22 21 22 24 26 26 26 24 22 21 19 17 16 15 15 14 14 13 14 14 14 14 15 16 17 18 19 20 21 22 23 23 23 23 23 23
27 32 27 26 35 43 41 34 35 39 34 28 26 31 43 48 49 52 44 36 39 41 47 60 67 65 55 52 57 59 65 77 84 86 85 80 75 72 67 61 56 52 47 45 45 45 47 49 51 54 56 59 59 57 52 44 35 28 23 20 21 22 25 27 26 25 22 19 16 14 13 11 11 11 11 11 11 10 10 11 11 11 11 11 11 12 12 13 13 14 16 17 19 20 21 22 23
19 27 18 22 37 41 40 35 27 30 26 18 25 33 33 40 53 54 42 42 54 59 64 69 64 56 49 45 53 61 67 72 73 75 73 64 56 52 49 47 46 45 45 45 47 49 52 56 60 62 60 56 50 41 33 26 21 20 21 23 26 27 26 24 21 17 14 12 11 11 11 11 12 13 13 14 14 14 14 14 14 13 13 13 13 13 13 13 12 12 12 12 13 14 15 16 18
10 20 18 26 39 36 37 37 27 31 32 20 28 35 31 40 51 51 45 44 57 71 76 72 60 49 47 49 58 65 65 63 60 60 58 51 48 45 43 45 46 47 49 49 51 55 58 61 60 55 47 38 30 24 20 19 21 23 26 28 27 24 21 17 13 11 11 11 12 13 14 15 16 17 17 17 17 17 17 17 16 16 16 16 16 15 15 15 14 14 13 14 14 13 13 12 13
12 22 23 23 35 36 37 40 31 30 31 25 30 31 33 47 47 40 39 36 44 56 51 45 46 46 51 60 64 61 56 54 51 48 46 44 46 48 46 47 47 48 50 52 54 54 53 50 43 34 27 22 19 19 20 23 27 28 28 25 21 17 14 11 11 11 13 14 16 17 18 19 19 20 20 20 20 19 19 19 19 19 18 18 18 17 17 17 16 16 15 15 16 16 16 15 14
15 24 29 23 32 41 41 43 41 32 26 29 31 24 27 43 39 31 37 41 44 43 32 33 44 49 53 57 57 56 54 55 55 49 45 44 46 49 50 49 48 48 48 47 45 41 36 30 25 21 19 19 21 23 27 29 28 26 23 19 15 12 11 11 13 15 17 18 20 21 22 22 22 22 22 22 22 22 22 21 21 21 20 20 19 19 18 18 18 18 18 19 19 20 20 19 18
15 20 32 28 27 40 41 39 42 38 32 32 31 29 31 35 35 39 46 45 41 36 33 38 41 44 52 55 60 70 74 76 76 62 49 44 46 50 51 50 49 46 41 36 30 27 24 21 19 19 20 23 26 29 29 27 24 20 17 13 12 11 12 14 17 19 21 23 24 24 25 25 24 24 24 24 24 24 24 24 24 23 22 22 21 21 21 21 21 22 22 24 25 25 25 24 23
Wind_Speed
12 12 12 11 11 10 9 10 10 12 13 16 19 15 14 16 18 14 13 13 11 13 13 13 14 14 14 15 14 15 15 14 15 14 11 12 13 13 13 12 12 12 12 11 10 11 11 12 12 13 14 14 14 14 15 15 15 16 17 18 18 19 19 20 20 20 21 21 21 22 23 23 23 22 22 21 20 20 19 19 19 19 19 19 19 19 19 19 20 20 20 20 20 21 21 22 23
11 12 12 11 11 7 7 11 11 12 14 17 18 14 15 16 16 12 10 13 13 14 14 14 15 15 15 16 16 14 15 14 13 14 15 16 16 16 15 13 12 13 14 12 12 12 13 13 14 14 15 15 15 16 16 16 17 18 18 19 20 20 21 21 22 22 22 22 22 23 24 24 23 23 22 21 20 20 20 20 19 19 19 19 19 19 19 19 19 19 19 19 20 20 21 22 23
12 11 11 10 9 8 9 12 13 14 16 17 15 12 15 14 12 12 14 17 16 16 15 15 15 16 16 16 16 13 14 14 11 12 13 14 15 15 14 13 13 13 15 14 13 14 14 15 15 16 16 16 17 17 18 18 19 19 20 21 21 22 22 23 23 23 23 24 24 24 25 24 24 22 22 21 21 21 20 21 20 20 20 19 19 19 19 19 19 18 18 18 18 19 20 21 23
11 11 11 8 6 10 11 13 15 16 18 18 14 11 11 8 10 15 17 17 15 15 14 15 16 16 16 17 16 14 14 14 11 12 12 13 13 14 14 14 14 14 16 15 15 15 15 16 17 18 18 18 18 19 19 20 20 21 22 22 22 23 24 24 24 25 25 25 26 26 26 25 24 22 22 21 21 21 21 21 21 21 20 20 20 20 19 19 19 19 18 18 18 18 19 20 21
11 11 11 8 7 11 11 14 16 17 20 17 12 7 5 7 12 14 14 14 13 14 14 15 16 16 16 16 15 14 14 13 13 13 13 14 14 15 15 15 15 16 17 17 17 17 17 18 18 19 19 20 20 20 21 21 22 22 23 24 24 25 25 25 25 26 26 26 26 26 26 25 24 23 22 21 21 21 21 21 21 21 21 21 21 20 20 20 20 20 19 18 18 18 18 20 19
11 10 11 10 11 14 12 14 16 17 20 16 14 9 8 15 18 16 15 15 15 15 15 15 15 16 16 14 13 14 14 14 14 14 15 15 15 16 16 17 17 17 18 18 18 18 18 19 20 20 20 21 21 22 22 22 23 23 24 25 25 26 26 26 26 27 27 27 27 26 25 25 24 23 22 22 21 21 22 22 22 21 21 21 21 21 21 21 20 20 20 19 19 18 18 20 20
11 8 9 11 12 15 14 17 18 17 18 14 15 13 12 21 22 20 20 19 19 18 16 16 15 16 16 14 14 14 14 15 16 15 16 16 16 17 17 18 18 19 19 20 20 19 20 20 21 21 21 22 22 22 23 23 24 24 25 25 26 26 26 27 27 27 27 27 26 25 25 24 24 23 23 23 22 22 22 22 22 21 21 21 21 21 21 21 21 21 20 20 19 19 19 19 20
12 9 10 11 11 15 15 18 19 16 17 17 17 18 20 24 24 22 21 20 20 19 16 16 16 17 17 15 16 16 16 17 17 18 18 18 18 18 19 19 20 20 20 21 21 21 21 21 21 22 22 22 23 23 23 24 24 25 25 26 27 27 27 27 27 27 27 26 26 25 24 24 24 24 23 23 23 22 22 22 22 22 21 21 21 20 20 20 20 21 21 20 20 19 19 19 20
13 13 13 13 12 15 16 17 19 17 17 20 19 22 25 24 23 22 21 21 20 20 19 18 16 17 17 15 17 17 17 17 17 18 18 19 19 19 20 20 21 21 21 22 22 22 22 22 22 22 22 23 23 23 24 24 24 25 26 26 27 27 28 28 27 27 27 26 26 25 24 24 24 24 24 24 24 24 23 22 22 22 22 21 21 20 20 20 20 21 21 21 20 20 20 19 20
12 13 11 11 13 16 18 16 17 17 15 18 17 20 24 21 20 20 19 20 20 20 19 18 17 18 17 17 18 18 17 17 17 18 18 19 19 20 20 21 21 21 21 21 22 22 22 22 22 22 22 23 23 24 24 24 25 25 26 27 27 28 28 28 28 27 27 26 26 25 25 25 24 24 24 24 24 24 24 23 23 23 22 22 21 21 21 21 21 21 21 21 20 20 19 19 19
8 12 12 11 13 15 17 15 14 13 10 14 17 18 20 17 18 19 18 19 20 19 18 18 18 18 17 18 19 18 17 17 18 18 19 19 20 20 21 21 21 21 21 21 21 21 21 22 22 22 23 23 23 23 24 24 25 26 27 28 28 28 28 28 28 28 27 27 27 26 25 25 25 24 24 25 25 25 25 24 24 23 23 22 22 22 21 21 21 21 21 21 21 20 19 18 18
8 9 11 12 14 15 15 14 13 11 11 13 15 17 18 16 16 17 17 18 18 18 17 17 18 18 16 18 19 18 19 19 19 19 19 20 20 20 20 20 21 21 21 21 21 21 21 21 22 22 22 23 23 24 25 26 26 27 28 28 28 29 29 29 29 28 28 28 27 26 26 25 25 25 24 24 25 25 25 25 25 24 23 23 23 23 22 22 22 22 22 22 21 20 19 18 17
9 8 10 12 14 14 14 14 13 13 14 12 14 17 17 14 14 14 15 16 16 17 17 16 17 16 15 19 20 19 18 19 18 18 19 19 19 19 20 20 20 20 20 21 21 21 21 22 23 23 23 24 25 26 26 27 28 28 28 29 29 29 29 29 29 28 28 27 27 26 25 25 25 25 25 24 24 25 25 25 25 24 24 23 24 23 23 22 22 21 21 21 21 20 19 18 17
8 10 11 12 13 13 15 15 13 12 11 10 15 16 14 13 12 13 13 14 15 16 16 15 16 14 14 17 20 20 18 19 19 19 20 21 21 21 20 21 21 21 21 21 21 22 23 23 24 24 25 26 26 27 27 27 28 28 29 29 29 30 30 29 29 28 28 27 26 26 25 25 25 24 24 24 24 24 24 24 24 24 24 24 24 24 23 22 21 21 20 20 20 20 19 18 17
8 11 12 12 13 14 15 14 12 12 10 13 17 15 14 14 13 13 12 12 14 15 15 15 14 13 14 14 18 22 21 21 21 21 22 22 22 21 21 21 21 21 22 22 22 23 23 24 25 25 26 26 26 27 27 27 28 28 29 29 30 30 30 29 29 28 27 27 26 25 25 24 24 24 24 24 24 23 24 24 24 24 24 24 24 24 23 23 22 22 21 20 21 20 20 19 19
9 11 11 13 14 13 12 11 11 11 10 15 18 16 17 16 14 15 14 13 15 15 15 15 14 14 17 17 20 23 22 22 22 22 22 22 22 21 21 21 21 22 22 22 22 23 24 24 25 25 25 25 26 26 27 27 28 28 29 29 30 30 29 29 28 27 26 26 25 25 24 24 24 24 24 24 24 24 24 25 25 25 25 24 24 24 24 23 23 22 22 21 21 22 21 21 20
10 11 11 14 14 12 11 8 8 10 10 17 19 17 17 18 16 15 15 15 15 16 15 15 16 17 19 20 21 22 22 22 21 21 21 21 21 21 22 22 22 22 22 22 22 23 23 24 24 24 25 25 26 27 27 28 28 29 29 29 29 29 28 28 27 26 25 24 24 24 24 24 24 25 25 25 25 26 26 26 26 25 25 24 24 24 24 24 23 23 23 22 22 22 23 22 22
11 10 12 14 12 11 12 10 12 14 15 19 20 17 16 18 16 15 15 14 14 15 15 15 17 19 19 20 21 21 21 20 19 20 19 20 20 21 22 22 22 22 22 22 22 22 23 23 23 24 24 25 26 27 27 28 28 29 29 29 28 28 27 27 26 25 25 24 24 24 24 25 25 26 26 26 27 26 26 26 25 25 24 23 23 23 24 24 24 24 24 24 23 23 24 24 24
11 10 12 14 12 14 18 18 19 19 17 20 20 17 16 17 17 15 13 15 15 13 14 16 17 18 19 19 19 18 18 18 18 19 19 19 20 21 22 22 23 23 22 22 22 22 22 23 23 24 25 25 26 27 28 28 29 29 29 28 28 27 26 26 25 24 24 24 24 24 25 25 26 27 27 27 27 27 26 25 25 24 24 23 23 24 24 24 25 25 25 25 25 24 25 25 26
13 13 13 14 15 18 21 19 19 19 17 19 19 17 17 16 16 14 13 14 12 10 12 16 17 18 17 17 18 17 17 18 19 19 19 20 20 21 22 22 23 23 22 22 21 22 22 23 24 25 25 26 27 27 28 29 29 28 28 28 27 27 26 26 25 25 24 24 25 25 26 26 27 28 27 27 27 27 27 26 25 25 25 25 25 26 26 26 26 26 26 26 26 26 26 27 27
15 16 14 15 17 18 20 19 17 18 17 17 18 18 18 17 15 14 14 10 6 12 16 16 17 19 18 16 17 17 17 18 19 20 21 21 22 22 22 22 22 22 21 22 22 22 23 24 24 26 26 27 27 28 29 29 28 28 28 27 27 27 26 26 26 25 25 25 26 26 27 27 27 29 28 28 27 27 27 27 26 26 26 27 27 27 27 27 27 27 27 27 27 27 27 28 28
16 17 15 17 17 17 20 19 17 18 17 17 17 17 17 17 16 15 15 13 11 17 18 17 18 18 19 18 17 17 18 19 20 21 22 23 23 23 22 22 22 22 22 22 22 22 23 24 26 26 27 27 28 28 29 29 29 28 28 27 27 27 26 26 26 26 26 26 27 28 28 29 29 30 29 28 28 28 28 28 28 28 28 29 29 29 29 29 29 29 29 28 28 28 28 28 28
15 15 17 18 16 17 19 18 18 17 16 16 17 17 17 17 17 16 17 18 18 19 18 19 18 18 20 18 17 18 19 21 21 22 23 23 23 22 22 22 22 22 23 23 22 23 24 25 26 27 28 28 28 29 29 29 29 29 28 28 28 28 28 28 28 28 29 29 29 30 30 31 31 31 31 30 29 30 29 29 29 29 29 30 31 31 30 30 30 30 30 29 29 29 29 29 29
15 15 18 18 16 18 19 18 18 17 17 17 18 19 18 17 17 19 20 20 20 20 20 20 19 19 19 17 18 20 22 22 21 22 22 22 22 22 22 23 23 23 24 23 24 24 25 26 27 28 28 28 29 29 29 29 29 29 29 29 29 29 29 30 30 30 31 31 31 31 32 32 32 32 32 31 31 31 31 30 30 30 30 31 31 31 31 31 31 31 31 31 31 31 31 31 31
16 15 17 17 17 18 18 18 18 17 18 18 18 19 20 18 18 21 22 20 20 21 20 18 17 17 17 18 20 21 21 20 19 20 21 21 21 22 23 24 24 24 24 24 24 25 26 27 28 29 29 29 30 29 29 30 29 30 30 30 31 31 31 32 32 32 33 33 32 32 33 33 33 33 33 33 32 32 32 31 31 31 32 32 32 32 33 33 33 33 33 33 33 33 33 34 34
16 16 17 18 19 18 18 18 18 18 19 19 20 20 20 18 17 21 21 19 19 19 18 17 16 16 17 18 18 18 17 17 18 19 19 21 22 23 25 25 25 25 25 25 25 26 27 28 29 30 30 30 30 30 30 30 30 31 31 32 32 33 33 33 33 33 34 34 34 34 34 34 34 34 34 34 34 33 33 33 33 33 33 33 34 34 34 34 35 35 35 35 35 36 36 36 36
17 17 17 18 19 19 19 19 19 20 20 19 18 18 17 16 17 20 19 17 17 17 17 16 15 15 14 15 15 15 16 17 18 19 20 22 24 25 26 26 26 26 26 26 27 27 28 29 30 30 30 30 30 30 30 30 31 32 33 34 34 34 34 35 35 35 35 35 35 35 35 35 36 36 35 35 35 34 34 34 34 34 35 35 35 35 36 36 36 37 37 37 37 37 37 38 38
16 17 18 19 19 20 20 20 20 19 18 16 15 16 17 16 15 16 14 14 15 15 15 14 14 13 13 14 14 16 17 19 20 22 23 24 25 26 27 27 26 26 26 26 27 28 29 29 30 30 30 30 30 30 31 32 32 33 34 34 35 35 36 36 36 36 37 37 36 36 37 37 37 36 36 35 35 35 35 35 35 35 36 36 36 37 37 37 38 38 39 39 39 39 39 39 39
17 18 19 20 20 21 21 17 15 15 14 14 14 13 14 12 9 10 13 14 15 15 15 15 15 14 15 15 16 18 20 21 23 24 25 26 26 27 26 26 26 26 26 26 28 28 30 30 30 31 31 31 31 31 32 32 33 33 34 35 35 36 36 37 37 37 37 37 37 37 37 37 36 36 35 35 35 35 35 36 36 36 37 37 37 38 39 38 39 40 40 40 40 41 41 41 42
19 19 20 19 17 18 17 12 11 14 15 16 15 9 9 12 9 10 13 14 15 16 16 16 15 16 16 18 19 20 21 22 23 24 24 25 25 26 26 26 26 26 27 27 28 29 30 31 31 31 31 31 31 31 32 32 32 33 33 34 35 35 36 36 36 37 37 37 37 36 36 36 36 35 35 34 35 35 36 36 37 37 38 38 38 39 40 40 41 41 42 42 42 43 43 43 44
19 19 19 15 10 10 13 13 14 17 15 15 15 7 9 13 9 10 11 13 17 18 18 19 19 21 21 23 23 23 23 23 24 24 24 24 25 26 26 26 27 27 28 29 29 30 30 30 30 30 30 30 30 30 31 31 31 32 33 33 34 34 35 35 36 36 36 36 36 36 35 35 35 35 35 35 35 36 36 37 38 38 39 39 39 40 41 42 43 43 44 44 44 45 45 46 46
18 15 11 8 4 6 12 16 15 15 15 15 13 5 8 14 11 12 14 16 20 20 22 23 24 25 25 26 26 25 26 26 26 26 26 26 26 27 28 28 28 28 28 29 28 28 28 28 28 28 28 28 29 29 29 30 31 31 32 33 33 34 34 35 35 35 35 36 36 36 35 36 36 36 36 36 36 37 38 38 39 40 40 40 41 42 42 44 44 45 46 47 47 48 48 49 49
13 8 6 7 6 7 12 15 14 14 15 15 11 4 11 18 16 16 17 19 20 21 23 24 25 26 27 27 26 26 26 27 27 28 28 28 28 28 28 28 27 27 27 26 26 26 26 26 26 26 26 26 27 27 28 28 29 30 31 32 32 33 33 34 34 35 35 36 37 36 36 37 38 37 38 38 38 39 39 40 41 42 42 42 43 44 45 46 47 48 49 49 50 51 52 52 53
7 7 9 10 10 10 10 11 14 15 14 12 8 7 13 16 16 16 17 18 20 22 24 24 25 24 24 23 22 22 22 22 23 24 26 26 26 25 25 25 24 24 24 23 23 22 22 22 23 23 23 24 24 25 26 27 28 29 30 31 32 33 34 34 35 36 36 37 38 38 38 38 39 39 40 40 40 41 42 43 44 44 45 45 46 47 48 49 50 51 51 52 53 54 55 56 56
11 13 12 10 11 10 7 9 14 16 14 8 2 6 13 14 16 18 19 21 22 22 22 20 18 17 16 15 15 15 16 16 18 19 20 21 22 21 21 21 21 20 20 19 19 18 18 19 19 20 20 21 22 24 25 26 27 29 30 31 32 33 35 36 36 37 37 38 40 40 39 40 41 41 42 43 43 44 45 46 47 48 48 49 49 51 51 53 53 54 55 55 56 57 58 58 59
14 15 13 12 12 9 8 12 13 13 10 5 3 7 14 16 18 21 21 21 19 16 15 14 14 14 13 13 12 12 12 12 13 14 16 17 17 17 17 17 17 16 16 15 15 15 16 17 18 20 21 22 23 25 26 28 29 30 31 32 33 34 36 37 37 38 39 39 41 43 42 42 43 44 45 46 47 48 48 49 50 51 52 52 53 54 55 56 57 57 58 58 58 58 59 59 59
13 12 11 12 9 5 10 12 10 11 10 6 13 14 16 17 17 19 18 15 14 13 14 14 14 14 14 13 12 12 11 11 11 12 13 14 14 14 14 14 14 14 14 14 15 16 17 19 20 22 23 25 26 27 28 30 31 32 33 34 35 36 37 39 40 40 41 42 44 45 46 46 47 48 49 49 50 51 52 52 53 54 55 55 56 56 57 58 58 59 59 59 59 59 59 59 59
11 10 9 8 5 6 12 12 10 15 11 6 16 18 15 16 15 13 12 12 13 14 14 14 14 15 15 14 13 12 11 11 11 11 12 13 13 13 13 13 14 14 15 17 18 19 21 22 23 25 26 27 28 29 30 32 33 34 35 36 37 39 40 41 42 43 44 45 46 48 49 49 50 51 52 52 53 53 54 54 55 56 56 57 57 57 57 58 59 59 59 59 59 59 59 59 59
10 9 8 6 7 10 12 13 15 19 13 3 11 18 15 12 9 8 11 12 12 13 15 15 16 16 15 14 13 12 11 10 10 11 11 12 13 14 14 15 16 17 18 20 21 23 24 25 26 27 29 30 30 31 32 34 35 37 38 39 40 42 43 44 45 46 47 48 49 51 52 52 53 54 54 55 55 56 56 57 57 57 57 58 58 58 58 59 59 59 59 59 59 59 59 59 59
9 10 8 6 11 13 11 14 18 21 13 2 8 14 11 6 5 10 11 12 13 15 17 17 16 16 15 14 13 12 11 10 10 11 12 13 14 15 17 18 19 20 21 23 24 26 27 28 29 30 31 32 33 34 35 37 38 40 42 43 44 45 46 48 49 50 51 51 52 53 54 55 55 56 57 57 57 58 58 59 59 59 59 59 60 60 59 59 60 60 59 59 59 59 59 58 57
10 12 9 10 15 16 15 17 18 16 7 1 4 5 2 3 7 12 12 13 16 17 18 17 16 15 14 14 13 12 11 11 11 12 13 14 16 17 19 20 21 23 24 26 28 29 30 31 32 33 34 35 36 37 39 40 42 44 46 47 48 49 51 52 53 54 55 56 56 57 58 58 59 59 59 59 59 59 59 59 60 59 59 59 59 59 58 58 59 59 58 58 58 58 58 58 56
10 11 12 16 18 18 16 16 15 9 3 2 6 3 5 2 8 12 12 15 17 18 18 17 17 16 14 14 13 13 12 13 13 14 16 17 19 20 21 23 24 26 27 29 30 31 32 33 34 35 37 38 40 41 43 45 47 49 50 52 53 54 55 56 57 59 59 60 61 61 61 62 62 62 62 61 60 59 58 58 58 58 58 57 57 57 57 57 58 58 57 57 57 57 57 58 57
7 11 16 19 17 16 16 14 11 6 3 4 6 4 1 4 6 11 12 15 17 18 19 17 17 15 15 14 13 14 14 15 16 18 20 21 22 23 24 26 28 29 30 32 33 34 35 36 37 39 40 42 44 46 48 50 52 54 55 57 58 59 60 61 62 62 63 63 63 63 63 62 62 62 62 61 60 59 57 56 55 55 56 56 55 55 55 56 56 56 56 57 57 57 57 57 57
9 13 18 18 16 15 14 11 6 4 3 3 8 10 6 4 5 12 14 15 18 20 18 16 16 15 14 14 14 15 16 17 19 21 22 24 25 27 28 30 32 33 34 35 36 37 38 40 41 43 44 46 49 51 53 55 57 59 60 61 62 63 63 63 63 63 62 62 62 61 60 59 59 59 59 59 58 57 56 54 53 53 54 54 54 54 54 55 55 55 55 56 56 56 56 57 57
13 16 17 15 14 13 9 6 4 2 3 2 11 15 9 3 6 12 13 11 15 18 17 15 15 15 15 15 16 17 18 20 22 24 25 27 28 30 32 33 35 36 38 39 39 40 42 44 45 47 49 51 54 57 59 61 62 63 64 64 64 63 63 62 61 60 59 58 58 57 56 55 54 54 54 54 54 54 53 52 51 51 51 52 52 52 53 53 54 54 54 54 55 55 55 56 56
14 16 18 15 12 10 6 4 2 3 4 2 12 15 8 4 7 7 7 7 12 15 15 15 16 16 16 17 17 19 21 23 25 27 29 31 32 34 35 37 38 39 41 42 43 44 45 48 50 52 55 58 60 63 64 65 65 65 64 63 63 62 61 59 58 57 56 55 55 54 53 52 51 50 51 51 51 51 51 50 49 48 48 49 49 50 50 51 52 52 53 53 54 55 55 56 56
16 18 20 18 12 8 4 3 1 4 1 5 11 16 9 1 6 5 8 11 12 13 14 17 17 17 17 18 19 21 23 25 27 29 31 33 36 37 37 40 42 43 44 45 46 48 49 52 55 58 61 64 65 66 66 66 65 64 63 62 61 60 59 57 56 55 53 52 51 50 49 49 48 48 48 48 48 48 48 48 47 46 46 46 47 48 48 49 50 51 51 52 53 54 55 55 56
20 19 18 16 10 5 4 2 2 4 2 7 12 15 7 0 3 6 12 14 12 13 15 18 19 18 18 18 20 22 24 26 28 31 33 35 37 39 40 42 44 45 47 48 50 52 54 58 61 64 66 67 67 67 66 64 63 62 61 60 58 57 56 54 53 51 50 49 48 47 46 45 45 45 45 45 46 46 46 46 46 46 46 46 46 47 47 47 48 49 50 51 52 53 54 54 55
22 19 17 14 6 4 4 2 4 5 3 7 12 10 4 3 4 8 14 15 14 15 16 18 20 19 20 21 22 24 26 28 30 32 34 36 38 40 42 44 46 47 49 52 55 57 60 63 65 67 68 68 67 65 64 63 61 60 59 57 56 54 52 50 49 48 47 47 46 46 45 45 45 45 45 45 45 46 46 46 47 47 47 47 47 47 48 48 49 49 50 51 52 53 54 54 55
22 20 17 12 6 5 5 4 6 5 4 8 9 6 4 5 7 12 17 17 15 16 18 21 21 21 22 24 26 28 30 32 33 34 36 38 41 42 44 47 49 52 55 57 60 62 64 66 67 68 67 66 65 63 62 62 60 59 57 54 52 49 48 47 46 46 46 46 47 47 47 47 47 47 47 47 47 47 47 48 48 48 49 49 49 49 49 49 50 51 51 52 53 53 54 55 55
16 18 13 10 7 5 4 5 6 6 9 10 4 4 5 5 10 17 18 17 16 18 22 24 23 24 26 29 31 32 33 34 35 36 38 41 43 45 47 50 53 55 58 60 62 63 64 65 65 64 64 63 62 62 61 60 58 56 53 51 49 47 47 46 46 46 46 47 47 47 48 48 48 49 50 50 49 49 49 50 50 50 51 51 51 51 51 52 52 52 52 53 54 54 55 56 56
10 14 13 9 6 4 7 7 6 8 10 6 1 3 6 8 14 17 15 17 19 22 25 25 25 28 31 33 35 36 35 36 36 38 41 44 46 48 49 52 54 56 58 59 60 61 61 60 60 59 60 60 59 59 57 54 52 51 50 49 48 48 48 48 48 48 48 48 48 48 48 48 48 49 49 50 50 50 50 50 50 50 51 51 52 52 53 53 54 54 55 55 55 56 56 57 57
11 12 13 10 5 4 7 7 6 8 6 3 3 3 6 8 12 14 16 20 24 26 27 27 29 32 35 37 37 39 39 39 39 41 44 47 48 49 51 53 55 56 57 58 58 58 58 57 57 57 57 56 54 52 50 49 48 48 48 48 48 49 49 49 49 49 49 49 48 47 47 46 46 46 47 48 49 50 50 50 50 51 51 51 52 52 53 53 54 55 56 56 57 57 58 58 58
14 10 11 9 5 5 5 4 6 5 5 7 5 4 8 7 6 13 18 21 22 24 26 28 31 34 36 39 39 39 41 42 43 44 46 49 50 51 52 53 54 55 56 56 56 56 56 56 55 54 52 50 49 48 47 47 48 48 48 49 49 49 49 49 49 48 47 46 45 44 44 45 45 46 47 48 49 50 51 52 52 53 53 53 53 53 54 54 55 55 55 56 57 58 59 60 60
19 13 12 9 4 5 5 4 6 5 5 7 4 6 9 5 5 12 18 20 20 21 24 27 31 35 37 39 39 40 43 44 46 46 48 50 52 53 54 53 54 54 54 54 54 54 53 51 50 49 48 47 47 47 47 48 48 49 49 49 49 49 49 48 47 45 43 42 42 43 44 45 46 47 48 49 51 51 52 53 54 54 55 55 56 56 56 57 57 58 57 57 57 57 58 59 60
20 14 11 10 6 5 6 3 4 5 6 6 6 7 5 5 10 16 19 22 22 23 28 32 33 36 36 38 40 42 44 46 47 49 50 50 51 53 54 53 53 52 52 51 50 49 48 47 46 46 46 47 47 48 48 48 49 49 49 49 49 48 47 45 42 41 41 41 43 44 45 46 47 48 50 51 52 53 53 54 55 55 56 57 57 58 58 59 59 60 60 60 59 59 59 59 59
19 14 10 11 8 6 6 2 1 5 5 4 7 8 6 9 17 21 21 23 25 29 35 35 34 36 36 38 41 43 45 47 49 51 52 51 50 51 52 52 52 51 49 48 47 46 45 45 45 46 46 47 47 48 48 49 49 49 49 48 47 45 42 40 39 40 41 42 44 45 46 47 48 50 51 52 53 54 55 56 56 57 57 58 59 59 60 60 60 60 60 60 60 60 60 60 59
17 13 7 8 9 7 6 3 2 6 6 6 7 8 11 17 20 21 22 25 31 36 36 35 36 37 37 39 39 40 41 42 44 49 52 51 50 50 51 51 50 50 48 47 46 46 45 45 46 46 47 48 48 48 49 49 49 48 48 46 43 40 38 37 38 40 41 42 44 45 46 48 49 50 51 52 53 54 56 57 57 59 59 60 60 61 60 60 60 59 59 59 58 58 59 59 59
Wind_Direction
225 227 229 231 233 237 247 240 243 244 239 252 254 255 261 261 261 259 275 282 281 283 285 288 295 301 301 303 302 299 288 275 272 271 268 261 265 271 276 281 280 281 280 279 278 272 269 267 267 268 268 270 271 272 273 274 274 275 275 276 276 277 279 281 282 284 286 288 290 291 292 293 293 293 293 294 295 294 294 292 291 290 289 288 288 288 287 287 287 288 288 289 288 287 286 285 284
232 232 233 234 237 232 244 243 241 244 239 249 253 252 257 265 276 273 265 269 276 284 288 291 296 300 300 300 300 304 293 281 276 268 261 262 265 271 276 276 277 282 281 281 280 278 276 274 274 274 274 275 276 277 277 277 277 277 276 277 278 280 282 283 285 287 288 289 290 290 291 291 291 292 293 293 294 294 293 292 290 289 288 288 287 287 287 287 286 287 288 288 288 287 287 286 285
240 236 236 237 242 228 228 243 242 245 246 253 261 258 258 270 282 266 257 270 279 281 285 291 295 297 298 296 300 305 291 287 282 270 265 264 267 271 273 275 278 281 280 279 279 280 278 277 277 276 277 278 278 279 279 279 278 278 278 280 282 283 284 286 287 288 289 289 290 290 290 290 290 290 291 292 293 292 291 290 288 288 287 287 287 287 287 287 287 287 287 287 286 286 286 285 285
245 240 238 226 236 250 241 241 243 250 253 257 271 270 260 263 264 258 264 275 276 278 285 290 294 295 296 295 299 300 290 290 285 275 272 269 270 272 273 275 276 278 278 278 278 277 277 276 276 275 276 277 278 279 279 278 278 279 281 282 284 284 285 287 287 288 288 289 289 289 289 289 289 289 289 290 290 290 289 287 287 286 286 286 286 287 287 288 288 288 288 287 286 286 285 283 284
246 245 242 217 212 248 242 241 246 250 252 256 271 283 283 263 265 273 277 279 277 279 283 287 292 293 292 293 295 292 289 289 283 278 275 272 272 273 273 274 275 276 276 277 277 276 276 275 274 274 275 276 277 277 277 278 279 280 282 282 283 284 285 286 286 287 288 288 288 288 288 287 287 288 288 289 289 288 287 286 285 285 285 286 286 286 287 287 287 288 288 289 288 288 287 285 285
246 249 251 235 224 235 233 245 249 248 255 259 263 282 309 280 276 283 282 281 279 279 281 283 288 292 290 292 292 289 290 287 283 280 276 275 274 275 276 276 276 276 277 278 277 277 277 276 275 275 274 275 276 277 278 279 279 280 281 282 282 283 283 284 285 286 287 287 287 287 287 286 287 287 288 288 288 288 287 286 285 285 285 286 286 286 286 286 285 286 286 288 289 289 288 288 287
246 249 257 250 245 246 241 250 253 255 264 263 257 263 277 276 281 285 283 281 279 279 280 282 287 290 290 294 294 292 292 288 285 281 278 278 276 276 276 276 276 276 277 277 277 277 277 277 276 276 275 275 276 277 278 279 279 280 280 281 282 282 282 283 284 285 285 286 286 287 287 287 288 289 289 290 289 289 288 287 287 287 286 285 285 285 285 284 284 284 285 285 286 286 286 286 286
246 235 240 242 248 258 250 252 257 258 265 264 260 258 263 273 282 285 284 282 281 280 280 283 288 285 286 292 292 290 291 289 284 280 277 277 275 275 274 275 275 276 276 276 277 277 277 277 277 276 275 275 276 278 278 279 279 280 281 281 282 282 283 283 284 285 286 287 287 288 288 288 289 290 291 291 291 290 289 288 287 287 286 285 284 283 284 284 284 284 284 285 285 285 284 283 283
247 235 240 249 245 251 253 254 259 257 263 269 269 268 271 275 278 280 281 280 279 279 280 283 283 280 283 287 286 288 290 288 283 279 276 275 274 274 274 275 275 275 275 276 276 276 277 278 277 276 276 277 277 278 279 280 280 280 281 282 283 283 284 284 286 287 288 289 289 289 289 288 288 289 290 290 290 289 288 287 286 286 285 284 283 283 283 283 283 284 284 284 285 284 284 282 282
250 246 239 250 248 248 255 256 260 263 264 270 276 276 277 278 277 277 277 278 277 278 279 281 280 279 282 284 286 289 291 288 285 281 278 277 277 277 277 276 276 276 276 276 276 276 277 277 277 277 277 278 279 280 281 281 281 281 282 283 284 285 286 287 289 290 291 291 290 289 288 288 287 288 288 289 288 288 287 286 285 284 283 282 282 281 281 281 281 282 283 283 284 284 283 282 281
236 254 235 234 247 246 255 260 265 268 264 278 290 288 286 284 279 278 277 278 279 280 281 282 281 281 283 285 287 292 291 290 287 284 283 282 281 281 280 278 277 277 277 277 277 277 277 278 279 279 280 280 281 281 281 281 281 282 283 284 285 287 288 289 290 291 292 292 291 290 289 288 288 288 288 288 288 287 286 285 284 282 281 280 279 278 277 278 278 279 280 281 282 281 281 281 280
201 244 243 237 246 249 258 265 270 273 277 287 287 287 295 293 282 282 281 280 282 284 285 284 283 285 288 286 289 293 292 292 290 288 287 285 284 283 281 280 279 279 278 279 279 280 280 281 281 282 282 282 282 282 282 282 283 284 285 286 287 288 289 290 291 292 292 292 291 290 290 289 289 289 289 288 288 287 286 284 283 281 279 277 276 276 275 276 277 278 279 279 279 279 279 278 278
201 226 243 243 250 255 262 267 274 279 284 279 265 280 299 295 288 288 286 285 285 285 287 286 285 288 289 288 291 291 293 296 294 292 289 286 285 284 283 282 280 280 280 280 281 282 282 282 283 283 283 282 282 282 283 283 284 285 286 287 288 289 289 290 291 292 292 291 290 290 290 289 289 288 288 288 286 285 284 282 281 279 277 276 275 274 274 275 276 276 276 276 276 275 275 275 275
211 221 236 248 256 260 263 267 274 281 287 275 267 285 300 297 297 292 291 292 287 288 291 289 288 289 288 290 291 292 296 297 294 291 288 287 286 284 283 281 280 279 279 280 280 281 281 281 281 281 281 281 281 282 283 284 285 286 287 288 288 289 290 291 291 291 291 290 290 289 289 288 287 287 286 285 284 283 281 280 278 277 275 273 273 273 273 273 272 272 272 272 272 271 271 272 272
223 229 237 249 259 264 267 264 269 279 284 275 276 291 297 297 301 296 296 291 289 294 296 292 290 287 284 284 287 293 297 294 292 289 288 288 287 286 283 281 279 278 278 278 279 278 278 278 278 279 279 280 281 282 284 285 286 287 287 288 288 289 290 291 291 291 291 290 289 289 288 287 286 285 283 282 280 279 277 276 274 273 272 271 271 271 270 270 269 268 267 267 268 268 269 270 271
239 239 241 251 257 263 267 262 272 283 279 274 280 297 301 298 299 300 299 291 292 297 296 294 291 285 283 282 284 290 293 291 291 289 289 290 288 287 284 282 279 278 277 276 276 275 275 276 277 278 279 281 282 283 285 286 286 287 288 288 289 290 291 291 291 291 290 290 289 288 287 285 282 280 279 277 275 274 273 272 272 271 271 271 270 270 269 268 267 266 265 264 265 267 269 270 272
249 246 243 249 256 263 267 268 277 277 279 281 286 299 303 301 301 301 297 294 295 295 295 294 289 283 281 282 283 286 288 289 289 289 290 288 287 285 283 281 279 277 275 274 273 273 274 275 276 278 279 280 282 284 285 286 286 287 288 288 289 290 290 290 290 290 290 289 288 286 284 281 279 276 274 273 272 272 273 273 273 273 273 271 270 268 267 266 265 264 263 263 263 265 268 270 273
257 253 247 251 261 267 258 260 274 275 282 286 289 297 301 303 302 302 301 297 295 295 293 287 282 279 278 280 282 285 286 288 289 289 289 286 284 282 280 279 278 277 275 274 273 273 274 275 276 276 278 279 281 283 285 285 286 287 287 288 288 289 289 289 288 288 287 285 283 281 280 278 276 274 273 273 273 274 274 274 274 274 272 269 266 265 264 263 262 261 261 261 262 264 267 270 273
262 252 249 257 265 261 255 264 278 279 282 286 291 297 300 303 302 305 305 300 305 305 293 284 278 276 279 281 282 283 285 287 288 288 287 284 281 279 278 278 277 275 274 274 274 274 274 274 275 276 277 280 282 283 284 285 285 286 287 287 287 287 287 286 286 285 284 282 280 278 276 275 274 274 274 275 275 275 274 273 272 270 267 264 262 261 261 262 262 261 262 263 264 267 269 272 274
266 254 251 259 261 263 268 275 280 282 285 289 296 301 303 304 302 303 302 310 320 304 284 282 281 281 283 283 282 283 285 287 287 286 284 280 278 276 275 274 273 273 273 273 273 273 273 274 275 276 279 280 282 283 283 284 285 285 285 285 285 284 284 284 283 282 280 279 278 276 275 274 274 274 274 273 273 272 272 270 268 265 262 260 259 260 260 261 263 264 266 268 269 270 272 274 275
267 266 257 259 265 273 280 285 286 287 290 293 298 303 306 304 301 299 302 314 301 278 284 284 282 285 285 282 281 284 285 285 284 282 279 275 274 272 272 271 270 271 270 269 269 270 271 272 274 276 278 279 281 281 282 282 282 282 282 283 283 283 283 282 281 280 278 277 276 275 274 273 273 273 272 271 270 269 269 267 265 262 260 260 259 261 262 263 264 266 268 270 272 273 274 275 277
273 279 270 269 278 281 284 291 293 291 292 295 300 305 307 304 298 294 296 294 278 281 288 284 280 280 280 279 279 282 284 285 283 278 274 271 269 269 269 267 267 266 264 265 267 268 268 270 272 274 276 277 279 279 279 280 280 281 282 283 283 283 283 282 280 279 277 275 274 274 273 273 272 272 271 271 270 269 267 266 264 261 261 261 261 261 263 264 266 267 268 270 272 273 275 276 277
279 282 279 282 287 283 287 295 295 294 295 296 301 305 305 302 296 291 289 290 291 290 285 281 278 272 274 276 276 281 285 286 283 276 273 269 267 265 263 262 262 261 261 263 264 264 265 268 270 272 274 275 276 276 277 278 280 281 282 283 283 283 282 281 280 278 276 275 274 274 274 274 274 273 273 272 270 268 266 264 263 261 261 261 262 264 264 266 268 268 270 271 272 273 274 275 276
281 278 281 289 289 287 292 295 295 297 297 297 301 303 302 300 294 289 287 290 292 290 285 281 275 269 269 271 275 281 284 284 279 273 270 266 262 259 256 256 256 256 257 259 261 262 264 266 268 270 273 273 273 274 275 277 279 280 281 281 281 280 279 278 278 277 276 276 275 276 276 276 276 275 274 273 271 269 266 264 262 261 262 263 264 266 267 268 269 270 271 272 272 273 274 275 276
285 282 285 292 291 291 294 295 298 299 297 298 299 298 297 297 292 287 288 290 289 287 284 279 274 270 269 271 276 279 279 277 271 266 263 258 254 250 250 251 252 254 256 258 259 260 261 264 267 269 270 271 271 273 274 276 277 278 279 278 277 277 277 276 276 276 277 277 277 276 276 276 276 275 274 273 271 269 266 263 262 262 263 264 265 266 268 268 269 270 271 272 272 273 274 275 276
289 291 292 293 292 293 294 296 299 298 297 297 296 294 294 296 291 286 289 290 287 285 281 278 277 274 272 274 276 277 276 272 265 259 256 252 249 248 249 250 252 254 255 257 259 261 263 265 266 267 267 268 270 271 273 274 275 276 276 276 276 275 275 276 276 276 277 277 277 276 276 275 275 275 274 273 271 269 266 264 262 262 263 264 266 267 268 269 270 270 271 272 273 274 275 276 277
288 290 290 290 291 293 294 295 296 296 296 296 294 293 295 297 289 286 291 291 287 286 285 283 283 279 279 279 277 276 272 266 261 256 253 251 250 250 250 252 253 255 258 260 263 265 265 265 264 265 265 266 267 269 271 273 274 275 275 275 274 274 275 275 275 276 276 276 276 276 276 276 276 275 275 273 271 269 266 264 263 263 264 265 266 267 268 270 271 271 272 273 275 276 277 277 278
287 288 288 289 289 291 292 294 295 295 295 296 298 302 302 298 285 284 293 295 291 292 291 289 286 285 285 284 280 277 273 269 266 263 261 258 256 255 255 255 256 257 261 262 264 265 263 262 261 260 261 263 265 267 270 272 273 274 273 273 273 273 273 274 274 275 275 275 275 276 276 276 276 275 274 273 270 269 267 266 265 265 265 266 268 269 269 271 272 273 274 274 275 276 277 278 278
287 287 289 291 293 293 294 296 295 296 299 300 308 314 305 295 280 285 295 293 292 293 293 291 288 288 289 288 286 282 280 276 272 269 266 264 262 261 259 258 258 259 260 262 262 261 259 258 257 258 260 263 266 269 271 273 273 273 272 271 271 272 272 273 274 274 274 275 275 275 276 276 275 274 273 271 270 269 267 267 267 267 267 268 270 271 271 272 273 274 274 276 277 277 278 278 279
288 290 291 295 296 290 292 300 301 304 306 302 312 322 287 282 282 285 292 292 294 295 293 291 289 290 290 289 289 286 283 278 274 271 267 266 264 261 260 259 259 261 261 260 260 258 257 256 257 259 261 264 267 270 272 273 273 272 271 271 271 271 272 272 273 273 273 273 274 274 274 274 273 272 271 270 269 269 269 269 269 269 269 271 272 272 273 274 274 275 275 276 277 278 279 279 280
293 295 296 299 291 270 279 294 300 305 307 304 317 325 265 274 283 282 290 295 296 295 290 289 287 288 289 288 287 283 280 276 273 270 267 265 262 260 259 259 259 260 260 259 258 257 256 256 258 259 262 265 268 270 272 272 272 272 271 271 271 271 271 271 271 271 271 271 273 273 273 272 271 271 270 270 270 270 270 271 271 272 272 273 274 275 275 276 276 276 277 277 278 279 279 280 281
299 299 298 306 296 279 291 297 300 304 309 307 317 332 266 276 282 281 290 293 292 290 287 287 287 288 289 288 287 282 278 274 270 268 266 264 261 259 258 257 257 257 258 258 258 257 257 257 259 260 263 266 268 270 271 271 272 271 271 271 271 271 270 270 270 270 270 271 271 272 272 271 271 270 270 271 272 272 272 273 273 273 274 275 276 277 278 278 278 278 279 279 280 280 281 282 282
288 295 294 299 295 299 304 301 300 303 309 310 316 307 264 274 280 284 291 294 291 290 290 290 291 291 291 290 289 285 279 274 270 266 264 262 260 259 258 257 258 258 259 259 259 259 259 259 261 263 265 268 269 270 271 271 271 271 270 271 270 270 270 269 270 270 271 271 271 271 271 271 271 271 272 272 273 274 275 275 276 276 276 277 278 278 279 280 280 280 281 282 282 283 283 284 284
280 305 310 305 299 306 306 296 299 305 310 314 316 284 269 278 289 294 295 295 295 294 294 294 295 296 296 295 293 289 285 278 274 269 266 264 262 261 261 261 262 263 263 262 262 261 262 263 264 267 268 269 270 270 271 271 271 271 271 271 271 271 271 270 271 271 272 272 272 271 272 272 273 273 274 274 275 276 277 278 278 278 278 279 280 280 280 281 281 281 282 283 284 284 284 285 285
292 302 309 305 305 314 302 288 301 310 316 319 302 267 284 296 299 300 300 298 299 299 302 306 309 312 311 310 308 302 297 290 283 278 274 271 269 268 267 267 266 266 266 265 265 265 265 266 267 268 269 269 270 269 270 270 270 271 271 272 272 272 273 272 273 274 274 275 275 274 274 275 276 277 277 277 278 279 279 280 280 280 280 280 281 282 282 282 282 283 283 284 284 285 285 285 286
296 299 305 302 307 311 289 295 308 323 337 324 275 279 292 301 302 304 306 306 311 316 323 332 334 337 335 331 329 321 315 306 297 290 284 279 275 273 271 270 269 267 267 266 267 267 267 267 266 265 265 265 265 266 266 267 267 268 270 271 272 274 275 275 276 276 277 278 278 277 277 277 278 279 279 280 281 281 282 282 282 282 282 282 283 283 284 283 283 283 284 284 285 285 285 286 287
308 310 315 309 308 303 294 307 322 343 359 301 291 299 297 307 311 310 315 323 336 343 345 349 349 351 350 346 343 337 331 321 310 301 292 284 278 275 272 269 267 265 264 262 262 262 261 261 261 261 262 262 263 265 266 267 268 268 270 271 273 275 276 278 278 279 280 281 282 281 281 281 282 281 281 282 283 284 284 284 285 285 284 285 285 286 286 285 285 285 285 286 286 287 287 287 288
327 331 329 318 306 303 307 317 327 337 349 296 291 300 306 319 320 320 337 347 348 354 358 3 4 1 358 354 350 344 336 326 315 303 292 284 277 273 269 265 264 262 260 260 259 258 258 258 259 260 262 263 264 266 268 270 271 272 273 274 276 279 281 282 283 284 285 286 287 286 286 286 287 287 286 285 286 287 286 287 287 287 287 287 287 288 288 288 288 288 288 288 288 288 288 288 287
349 347 333 325 316 315 319 322 323 327 335 283 276 295 310 324 333 349 359 357 360 12 14 11 8 4 1 357 350 345 336 324 311 297 287 280 273 268 266 263 261 261 259 259 259 259 259 260 261 263 264 266 268 269 272 274 276 277 278 280 282 284 286 287 287 289 290 290 291 291 290 290 291 291 291 290 290 290 290 290 290 290 290 290 290 290 290 290 289 289 289 289 288 288 287 287 287
336 336 338 333 322 326 324 313 318 324 323 247 261 298 321 325 354 10 4 11 20 21 16 11 9 4 359 355 347 339 330 317 303 291 282 275 271 268 265 264 262 262 261 261 261 262 262 263 265 267 268 269 271 273 276 278 281 282 283 285 286 288 289 290 291 292 292 293 294 294 294 294 294 295 294 294 294 294 293 293 293 292 292 292 292 291 291 290 290 289 289 288 287 287 286 285 284
309 319 337 330 322 326 319 312 324 324 313 26 288 294 28 335 350 13 14 22 23 16 14 10 6 3 357 352 343 333 322 310 299 288 281 275 272 269 266 266 265 264 264 264 265 265 266 267 268 270 272 274 277 279 282 284 286 287 288 289 290 291 293 293 294 294 294 295 295 296 297 297 297 297 297 297 297 296 296 295 295 294 293 293 292 291 290 289 288 288 287 286 285 284 284 283 282
309 308 328 328 324 327 323 324 333 316 252 19 324 260 128 36 357 18 25 23 19 12 10 7 3 0 354 347 337 326 315 303 295 286 282 279 276 274 270 269 268 268 268 268 269 270 270 271 273 275 278 281 284 286 289 291 292 293 294 295 295 296 296 297 297 298 298 298 298 299 299 299 299 298 298 298 297 297 296 295 294 293 292 291 290 288 287 286 286 285 284 283 282 281 280 280 279
326 306 324 330 330 331 329 330 335 318 295 18 5 334 101 104 24 21 25 17 14 11 5 2 1 355 348 341 329 318 308 298 292 287 285 284 281 279 276 274 273 273 273 273 273 274 275 277 279 282 284 288 290 292 294 296 297 298 299 300 300 301 301 301 302 302 302 301 301 301 301 301 300 299 299 298 297 296 295 294 292 291 289 288 287 285 284 282 282 281 280 279 278 277 276 276 275
336 324 334 339 339 336 332 334 334 315 294 60 50 0 323 135 63 20 22 10 4 6 2 359 356 349 341 331 320 310 302 295 292 290 289 286 284 282 280 279 278 279 278 279 279 279 280 283 285 288 290 293 295 297 299 300 301 302 303 304 304 305 305 305 305 304 303 303 302 302 301 301 300 299 298 297 296 295 293 292 290 289 287 286 285 283 282 280 279 278 277 276 275 273 273 273 272
344 342 347 345 342 338 338 355 347 280 213 120 38 5 334 105 61 19 25 15 353 353 358 359 350 343 334 322 314 307 302 300 297 296 294 291 288 286 285 284 283 283 283 282 283 284 286 288 290 293 295 298 300 302 304 305 306 306 307 307 307 307 306 306 306 305 305 304 303 303 302 301 300 299 298 297 296 294 293 291 289 287 286 284 283 282 281 280 278 277 276 275 274 273 272 272 271
348 349 352 348 348 350 358 33 347 256 192 88 21 8 354 81 80 42 24 359 339 343 351 356 348 338 330 319 313 311 307 306 303 301 299 296 295 292 290 289 287 287 286 285 286 287 290 293 294 297 300 302 304 306 307 308 309 309 309 309 308 308 308 307 307 307 306 306 305 305 304 303 302 301 300 299 297 296 295 293 291 288 286 284 283 281 280 279 278 277 276 275 274 274 273 273 272
356 356 351 337 326 335 346 28 336 252 188 59 15 357 339 57 86 43 355 347 346 347 344 346 345 338 331 323 320 318 313 310 308 305 303 301 300 298 294 293 290 289 289 288 289 290 294 296 298 301 303 305 307 308 309 310 310 310 310 310 310 310 309 309 308 308 307 307 306 305 305 304 303 301 300 300 298 298 297 295 294 291 289 287 285 283 281 279 278 276 275 274 273 273 273 273 273
6 2 352 331 307 304 275 262 333 292 18 42 1 347 334 113 57 355 345 344 342 345 340 341 343 339 334 330 326 322 317 313 310 308 305 303 302 300 297 295 292 290 290 291 292 294 297 300 302 304 306 307 308 309 310 310 311 311 311 311 311 311 310 310 310 309 309 308 307 306 305 304 303 302 301 300 299 298 298 297 295 294 292 290 288 286 284 282 280 278 276 275 273 272 272 272 272
10 11 4 352 343 344 312 311 356 336 21 21 354 353 15 25 349 325 333 333 326 335 339 338 338 335 334 332 328 324 320 316 312 310 308 304 302 300 297 294 291 291 292 294 297 299 301 304 306 307 308 309 310 311 311 312 312 312 312 312 312 312 312 311 311 311 311 310 309 308 307 306 305 304 302 301 300 299 298 297 295 294 292 291 289 287 285 283 281 279 278 276 275 274 273 272 272
14 18 13 8 9 353 343 357 352 339 347 345 350 19 29 353 324 313 320 320 316 324 329 331 329 328 330 329 327 325 321 318 315 312 310 305 302 301 298 296 295 296 298 300 301 303 304 306 307 308 308 309 310 310 310 311 311 311 310 310 311 311 311 312 311 311 311 310 309 308 307 306 305 304 302 301 300 299 297 296 295 293 292 290 289 287 285 283 281 280 278 276 275 274 273 272 271
16 17 20 22 23 2 333 338 344 332 317 313 328 11 351 325 308 309 312 311 310 316 320 323 322 324 328 327 325 323 319 317 314 311 308 304 303 302 300 299 299 300 300 301 302 303 304 305 306 307 307 307 308 308 308 309 309 309 309 309 310 311 311 311 310 310 309 308 307 307 306 305 304 303 302 300 299 298 297 295 294 293 292 290 289 287 285 283 282 280 278 277 276 274 273 272 271
9 11 18 11 11 345 310 309 309 306 305 301 41 348 316 305 304 307 311 310 311 316 319 322 323 325 327 326 324 320 317 315 312 309 306 303 303 302 302 301 301 301 301 302 303 304 305 306 307 307 307 307 308 308 308 309 309 309 310 311 311 311 311 311 310 309 309 308 307 307 306 305 305 304 303 302 301 300 298 297 296 294 293 292 290 289 287 285 283 282 280 278 276 275 274 272 271
4 3 6 354 1 354 319 301 291 291 290 308 16 342 308 305 302 303 312 315 315 318 320 320 322 324 325 324 321 318 316 314 310 308 305 304 304 304 304 304 304 305 305 306 307 307 308 308 308 308 308 308 308 309 309 310 310 311 311 312 311 311 311 310 310 309 309 309 309 308 308 307 307 306 306 305 304 303 301 300 299 297 296 294 293 291 290 288 286 284 283 281 279 277 275 274 272
16 8 4 360 14 8 342 318 313 311 305 319 337 323 307 298 284 298 313 320 318 319 320 320 322 321 319 319 317 315 314 312 310 309 307 307 307 307 307 308 309 309 309 309 310 310 310 309 309 309 309 309 309 310 311 311 312 312 311 311 311 310 310 310 310 310 310 310 310 310 310 310 309 309 308 307 306 305 304 303 301 299 298 296 294 293 291 290 288 286 285 283 281 280 278 276 274
18 25 24 29 30 343 339 330 323 325 318 320 328 318 305 269 258 298 310 317 313 313 319 320 318 317 316 316 315 314 314 313 312 311 310 311 312 312 312 312 312 311 311 311 310 310 310 309 309 309 309 310 311 311 312 312 312 311 311 311 310 310 310 310 310 311 311 311 311 311 311 311 310 310 309 308 307 306 305 303 302 301 299 298 296 295 293 291 289 287 285 284 282 281 279 277 276
10 22 34 43 41 347 345 344 325 322 312 312 314 320 311 254 283 304 309 313 311 311 316 317 315 315 316 316 315 315 314 313 313 312 313 315 316 315 314 313 313 312 312 312 311 310 310 309 310 311 311 312 312 312 312 311 311 310 310 310 310 310 310 310 311 311 312 312 312 312 312 311 311 310 310 309 308 307 306 304 303 302 301 299 298 296 295 293 291 289 287 285 283 281 279 278 276
3 10 23 33 33 2 338 302 309 322 312 314 311 312 310 288 298 309 310 311 313 314 317 317 317 317 317 316 315 315 315 315 315 315 316 317 318 316 315 315 315 314 314 313 312 311 312 312 313 313 313 312 312 311 310 310 310 310 310 309 309 309 309 310 311 311 312 312 312 312 312 312 312 311 311 311 310 309 308 306 305 304 303 301 300 298 296 294 292 290 288 286 284 282 280 278 277
358 0 13 27 26 5 331 304 335 324 294 289 300 296 296 295 299 309 311 312 315 316 318 319 318 318 317 316 316 315 315 315 314 314 316 318 319 318 317 317 316 316 315 314 314 315 315 316 315 314 313 312 311 310 310 310 310 309 309 309 308 308 308 309 310 311 311 312 312 312 313 313 313 312 312 311 311 310 309 308 307 306 305 303 302 300 298 295 293 290 288 286 285 283 281 280 278